Location: Asheville, NC
(35.6000°N, 82.5500°W)
Time: 18:49:49
(UTC-04:00)

Vanguard 3 - Pass Details

Date: 12 December 2017
Orbit: 508 x 3264 km, 33.3° (Epoch: 23 April)

Event Time Altitude Azimuth Distance (km) Brightness Sun altitude
Rises 15:02:47 0° 265° (W) 2,654 10.5 20.3°
Reaches altitude 10° 15:04:58 10° 261° (W) 1,712 9.7 20.0°
Maximum altitude 15:08:35 64° 180° (S) 579 7.1 19.6°
Drops below altitude 10° 15:12:46 10° 98° (E) 1,983 8.9 19.0°
Sets 15:15:28 0° 96° (E) 3,135 9.8 18.6°
